CW9688 Weather Reports


time (UTC)temp
C
wind
direction
speed
KPH
gust
KPH
rain 1hr
cm
rain 24hr
cm
rain mn
cm
humidity
%
barometer
mb
20260906182306 28 327 4.8 11.3 0.00 0.00 0.00 49 1014.5
20260906180805 27 35 3.2 8.0 0.00 0.00 0.00 51 1014.5
20260906175804 27 234 1.6 8.0 0.00 0.00 0.00 51 1014.5
20260906174804 27 332 6.4 11.3 0.00 0.00 0.00 54 1014.5
20260906174305 26 66 6.4 9.7 0.00 0.00 0.00 53 1014.5
20260906173304 26 309 3.2 9.7 0.00 0.00 0.00 56 1014.5
20260906170804 25 255 4.8 8.0 0.00 0.00 0.00 57 1014.5
20260906165805 24 250 0.0 11.3 0.00 0.00 0.00 62 1014.5
20260906164804 24 339 8.0 11.3 0.00 0.00 0.00 61 1014.5
20260906164305 23 295 3.2 8.0 0.00 0.00 0.00 64 1014.5
20260906163805 24 331 6.4 11.3 0.00 0.00 0.00 63 1014.5
20260906162805 23 263 4.8 11.3 0.00 0.00 0.00 64 1014.5
20260906160304 22 328 6.4 11.3 0.00 0.00 0.00 67 1014.5
20260906153805 21 12 8.0 11.3 0.00 0.00 0.00 67 1014.5
20260906153305 21 286 6.4 11.3 0.00 0.00 0.00 69 1014.5
20260906152307 21 330 6.4 11.3 0.00 0.00 0.00 70 1014.5
20260906150805 21 300 8.0 12.9 0.00 0.00 0.00 70 1014.5
20260906145306 20 342 8.0 19.3 0.00 0.00 0.00 72 1012.9
20260906144804 20 317 8.0 14.5 0.00 0.00 0.00 72 1012.9
20260906135306 18 292 6.4 12.9 0.00 0.00 0.00 77 1012.9
20260906134805 18 302 4.8 11.3 0.00 0.00 0.00 78 1012.9
20260906133804 17 297 3.2 9.7 0.00 0.00 0.00 79 1012.9
20260906130304 16 291 1.6 4.8 0.00 0.00 0.00 86 1012.9
20260906125805 16 257 1.6 3.2 0.00 0.00 0.00 87 1012.9
20260906124805 16 203 0.0 0.0 0.00 0.00 0.00 87 1012.9
20260906124304 16 203 0.0 0.0 0.00 0.00 0.00 87 1012.9
20260906122804 16 203 0.0 1.6 0.00 0.00 0.00 86 1012.9
20260906122306 16 203 0.0 0.0 0.00 0.00 0.00 86 1012.9
20260906121304 16 203 1.6 3.2 0.00 0.00 0.00 86 1012.9
20260906120305 16 264 1.6 3.2 0.00 0.00 0.00 86 1012.9
20260906115805 16 317 0.0 3.2 0.00 0.00 0.00 85 1012.9
20260906114804 16 317 0.0 1.6 0.00 0.00 0.00 85 1012.9
20260906113804 16 317 0.0 3.2 0.00 0.00 0.00 85 1012.9
20260906113304 16 317 1.6 4.8 0.00 0.00 0.00 84 1012.9
20260906112804 16 317 0.0 1.6 0.00 0.00 0.00 83 1012.9
20260906111304 16 331 3.2 8.0 0.00 0.00 0.00 83 1012.9
20260906110805 16 321 1.6 4.8 0.00 0.00 0.00 82 1012.9
20260906110304 16 312 1.6 9.7 0.00 0.00 0.00 82 1012.9
20260906105804 17 342 3.2 9.7 0.00 0.00 0.00 82 1012.9
20260906105306 17 337 6.4 11.3 0.00 0.00 0.00 82 1012.9
20260906104305 17 9 4.8 4.8 0.00 0.00 0.00 79 1012.9
20260906102306 17 332 6.4 9.7 0.00 0.00 0.00 76 1012.9
20260906101305 17 338 4.8 8.0 0.00 0.00 0.00 75 1012.9
20260906095805 17 302 0.0 1.6 0.00 0.00 0.00 71 1012.9
20260906094805 17 306 1.6 4.8 0.00 0.00 0.00 69 1012.9
20260906091804 18 14 3.2 8.0 0.00 0.00 0.00 65 1012.9
20260906090804 18 355 0.0 3.2 0.00 0.00 0.00 63 1012.9
20260906090304 18 5 1.6 3.2 0.00 0.00 0.00 62 1012.9
20260906085804 19 289 0.0 1.6 0.00 0.00 0.00 62 1012.9
20260906085306 19 289 0.0 4.8 0.00 0.00 0.00 62 1012.9
20260906084804 19 296 1.6 4.8 0.00 0.00 0.00 62 1012.9
20260906084305 19 290 0.0 4.8 0.00 0.00 0.00 62 1012.9
20260906081304 21 0 8.0 14.5 0.00 0.00 0.00 49 1012.9
20260906075804 21 11 8.0 14.5 0.00 0.00 0.00 47 1012.9
20260906075306 21 19 8.0 11.3 0.00 0.00 0.00 48 1012.9
20260906073804 21 358 8.0 12.9 0.00 0.00 0.00 53 1012.9
20260906072306 21 267 4.8 9.7 0.00 0.00 0.00 50 1012.9
20260906071304 21 319 4.8 11.3 0.00 0.00 0.00 50 1012.9
20260906070804 21 318 4.8 11.3 0.00 0.00 0.00 49 1012.9
20260906065804 21 277 1.6 4.8 0.00 0.00 0.00 48 1012.9
20260906064804 21 259 3.2 8.0 0.00 0.00 0.00 48 1012.9
20260906064304 21 280 1.6 8.0 0.00 0.00 0.00 48 1012.9
20260906063304 21 310 4.8 9.7 0.00 0.00 0.00 50 1012.9
20260906061804 21 226 1.6 1.6 0.00 0.00 0.00 49 1012.9
20260906061304 21 226 0.0 1.6 0.00 0.00 0.00 48 1012.9
20260906060304 22 226 0.0 1.6 0.00 0.00 0.00 47 1012.9
20260906055306 22 279 0.0 1.6 0.00 0.00 0.00 46 1012.9
20260906054304 22 252 1.6 3.2 0.00 0.00 0.00 44 1012.9
20260906053805 22 298 1.6 4.8 0.00 0.00 0.00 44 1012.9
20260906052306 23 225 0.0 4.8 0.00 0.00 0.00 41 1012.9
20260906051804 23 226 1.6 4.8 0.00 0.00 0.00 41 1012.9
20260906051305 23 215 3.2 4.8 0.00 0.00 0.00 41 1012.9
20260906045804 23 242 4.8 9.7 0.00 0.00 0.00 40 1012.9
20260906044304 22 178 6.4 9.7 0.00 0.00 0.00 43 1012.9
20260906043304 22 355 0.0 1.6 0.00 0.00 0.00 43 1012.9
20260906042306 22 9 1.6 4.8 0.00 0.00 0.00 42 1012.9
20260906041804 22 351 1.6 4.8 0.00 0.00 0.00 42 1012.9
20260906040804 22 72 0.0 3.2 0.00 0.00 0.00 41 1012.9
20260906035805 22 26 0.0 1.6 0.00 0.00 0.00 40 1012.9
20260906034804 23 355 0.0 1.6 0.00 0.00 0.00 40 1012.9
20260906034305 23 355 0.0 1.6 0.00 0.00 0.00 39 1012.9
20260906033304 23 355 0.0 3.2 0.00 0.00 0.00 38 1012.9
20260906032306 24 7 1.6 4.8 0.00 0.00 0.00 36 1012.9
20260906031804 25 43 3.2 4.8 0.00 0.00 0.00 35 1012.9
20260906031304 25 19 3.2 4.8 0.00 0.00 0.00 35 1012.9
20260906025306 25 346 8.0 12.9 0.00 0.00 0.00 34 1012.9
20260906024804 25 354 3.2 11.3 0.00 0.00 0.00 34 1012.9
20260906023304 26 350 6.4 12.9 0.00 0.00 0.00 34 1012.9
20260906014304 27 309 9.7 19.3 0.00 0.00 0.00 30 1012.9
20260906013305 27 300 8.0 16.1 0.00 0.00 0.00 30 1012.9
20260906012306 28 303 9.7 12.9 0.00 0.00 0.00 28 1012.9
20260906011304 28 307 8.0 19.3 0.00 0.00 0.00 27 1012.9
20260906004804 30 319 12.9 19.3 0.00 0.00 0.00 26 1012.9
20260906004304 30 318 14.5 27.4 0.00 0.00 0.00 24 1012.9
20260906003804 30 314 4.8 14.5 0.00 0.00 0.00 24 1012.9
20260906003304 30 320 8.0 12.9 0.00 0.00 0.00 24 1012.9
20260906002804 31 338 8.0 14.5 0.00 0.00 0.00 24 1012.9
20260906000804 32 190 1.6 4.8 0.00 0.00 0.00 21 1012.9
20260906000304 32 190 1.6 4.8 0.00 0.00 0.00 21 1012.9
20260905234304 32 137 1.6 4.8 0.00 0.00 0.00 21 1012.9
20260905232805 32 97 4.8 9.7 0.00 0.00 0.00 20 1012.9
20260905232306 32 93 8.0 12.9 0.00 0.00 0.00 22 1012.9
20260905231804 33 75 4.8 9.7 0.00 0.00 0.00 21 1012.9
20260905231305 33 134 4.8 11.3 0.00 0.00 0.00 21 1012.9
20260905230304 33 20 1.6 4.8 0.00 0.00 0.00 21 1012.9
20260905224804 33 72 8.0 11.3 0.00 0.00 0.00 21 1012.9
20260905224304 33 36 4.8 8.0 0.00 0.00 0.00 21 1012.9
20260905223804 33 78 4.8 16.1 0.00 0.00 0.00 20 1012.9
20260905223304 33 32 8.0 12.9 0.00 0.00 0.00 20 1012.9
20260905221804 33 55 3.2 9.7 0.00 0.00 0.00 19 1012.9
20260905221304 33 159 1.6 4.8 0.00 0.00 0.00 21 1012.9
20260905220304 33 40 1.6 3.2 0.00 0.00 0.00 20 1012.9
20260905215805 32 40 1.6 4.8 0.00 0.00 0.00 20 1012.9
20260905214804 33 282 4.8 14.5 0.00 0.00 0.00 21 1012.9
20260905213804 33 267 8.0 11.3 0.00 0.00 0.00 19 1012.9
20260905212804 33 35 6.4 11.3 0.00 0.00 0.00 22 1012.9
20260905211305 33 32 9.7 20.9 0.00 0.00 0.00 20 1012.9
20260905210804 33 45 11.3 19.3 0.00 0.00 0.00 20 1012.9
20260905210304 33 88 6.4 19.3 0.00 0.00 0.00 24 1012.9
20260905205306 33 22 11.3 24.1 0.00 0.00 0.00 20 1012.9
20260905204804 33 345 4.8 12.9 0.00 0.00 0.00 19 1012.9
20260905203304 33 30 4.8 14.5 0.00 0.00 0.00 22 1012.9
20260905202805 33 347 12.9 20.9 0.00 0.00 0.00 20 1012.9
20260905202306 33 335 9.7 19.3 0.00 0.00 0.00 23 1012.9
20260905201804 33 28 11.3 19.3 0.00 0.00 0.00 21 1012.9
20260905195805 33 45 9.7 19.3 0.00 0.00 0.00 22 1012.9
20260905192805 32 22 4.8 16.1 0.00 0.00 0.00 22 1012.9
20260905192306 32 65 8.0 19.3 0.00 0.00 0.00 23 1012.9
20260905185804 32 114 11.3 19.3 0.00 0.00 0.00 25 1012.9
20260905185306 31 68 9.7 16.1 0.00 0.00 0.00 23 1012.9
20260905184805 31 19 8.0 19.3 0.00 0.00 0.00 25 1012.9
20260905184304 31 54 11.3 25.7 0.00 0.00 0.00 24 1012.9